Date String (YYYY-MM-DD hh:mm:ss) UTC,Instrument flags,absolute air pressure of the measurement (hPa),sample flow rate (lpm),inlet stack bypass flow (lpm),air temperature of the measurement (°C),ambient temperature measured by the external sensor (°C),aerosol sample conditioner tube jacket temperature (°C),OPC LED temperature (°C),internal box temperature (°C),relative humidity of the measurement (%),span deviation,mass concentration of particles derived from Lorenz-Mie calculation of OPC scattering (μg/m³),mass concentration of particles derived from Lorenz-Mie calculation of OPC scattering (μg/m³),mass concentration of particles derived from Lorenz-Mie calculation of OPC scattering (μg/m³)
DateTimeUTC,F1_M11,P_M11,Q1_M11,Q2_M11,T1_M11,T2_M11,T3_M11,T4_M11,T5_M11,U1_M11,ZSPAN_M11,X0_M11,X2_M11,X1_M11
2024-02-05 17:00:00,SystemResetWarning,0829.2,4.99,000.00,019.2,019.0,000.0,027.3,020.9,15.1,0000.0,0001.76,0001.45,0001.27
2024-02-05 17:01:00,SystemResetWarning,0829.3,5.00,000.00,019.2,019.0,000.0,027.3,020.9,15.4,0000.0,0001.75,0001.44,0001.26
2024-02-05 17:02:00,SystemResetWarning,0829.4,5.01,000.00,019.2,019.0,000.0,027.3,020.9,15.3,0000.0,0001.73,0001.43,0001.26
2024-02-05 17:03:00,SystemResetWarning,0829.4,4.99,000.00,019.3,019.1,000.0,027.4,021.0,15.2,0000.0,0001.68,0001.40,0001.24
2024-02-05 17:04:00,SystemResetWarning,0829.3,5.00,000.00,019.3,019.1,000.0,027.4,021.0,15.4,0000.0,0001.64,0001.37,0001.24
2024-02-05 17:05:00,SystemResetWarning,0829.3,4.99,000.00,019.3,019.1,000.0,027.4,021.0,16.0,0000.0,0001.75,0001.38,0001.24
2024-02-05 17:06:00,SystemResetWarning,0829.4,5.00,000.00,019.4,019.2,000.0,027.4,021.1,16.3,0000.0,0001.83,0001.40,0001.25
2024-02-05 17:07:00,SystemResetWarning,0829.4,5.01,000.00,019.4,019.2,000.0,027.5,021.1,16.1,0000.0,0002.30,0001.43,0001.27
2024-02-05 17:08:00,SystemResetWarning,0829.3,5.00,000.00,019.4,019.2,000.0,027.5,021.1,16.4,0000.0,0002.84,0001.49,0001.30
2024-02-05 17:09:00,SystemResetWarning,0829.3,5.01,000.00,019.4,019.2,000.0,027.5,021.1,16.7,0000.0,0002.89,0001.51,0001.34
2024-02-05 17:10:00,SystemResetWarning,0829.3,4.99,000.00,019.5,019.3,000.0,027.5,021.2,16.8,0000.0,0003.09,0001.60,0001.40
2024-02-05 17:11:00,SystemResetWarning,0829.4,5.00,000.00,019.5,019.3,000.0,027.5,021.2,16.7,0000.0,0003.14,0001.66,0001.45
2024-02-05 17:12:00,SystemResetWarning,0829.3,5.00,000.00,019.5,019.3,000.0,027.6,021.2,15.7,0000.0,0003.54,0001.73,0001.53
2024-02-05 17:13:00,SystemResetWarning,0829.4,4.99,000.00,019.5,019.3,000.0,027.6,021.3,15.4,0000.0,0005.02,0001.84,0001.60
2024-02-05 17:14:00,SystemResetWarning,0829.4,5.01,000.00,019.6,019.4,000.0,027.6,021.3,15.4,0000.0,0005.14,0001.94,0001.69
2024-02-05 17:15:00,SystemResetWarning,0829.4,5.00,000.00,019.6,019.4,000.0,027.6,021.3,15.6,0000.0,0005.23,0002.02,0001.77
2024-02-05 17:16:00,SystemResetWarning,0829.4,5.01,000.00,019.6,019.4,000.0,027.7,021.3,15.5,0000.0,0005.27,0002.09,0001.82
2024-02-05 17:17:00,SystemResetWarning,0829.4,4.99,000.00,019.6,019.5,000.0,027.7,021.3,15.5,0000.0,0005.28,0002.16,0001.87
2024-02-05 17:18:00,SystemResetWarning,0829.4,4.99,000.00,019.7,019.5,000.0,027.7,021.4,15.9,0000.0,0005.43,0002.21,0001.92
2024-02-05 17:19:00,SystemResetWarning,0829.3,5.00,000.00,019.7,019.5,000.0,027.8,021.4,16.1,0000.0,0005.18,0002.21,0001.97
2024-02-05 17:20:00,SystemResetWarning,0829.4,5.00,000.00,019.7,019.5,000.0,027.8,021.4,16.1,0000.0,0005.30,0002.23,0001.99
2024-02-05 17:21:00,SystemResetWarning,0829.4,5.00,000.00,019.8,019.6,000.0,027.8,021.5,16.5,0000.0,0006.00,0002.18,0001.99
2024-02-05 17:22:00,SystemResetWarning,0829.3,5.00,000.00,019.8,019.6,000.0,027.8,021.5,16.6,0000.0,0005.98,0002.17,0001.98
2024-02-05 17:23:00,SystemResetWarning,0829.3,5.00,000.00,019.8,019.6,000.0,027.8,021.5,16.9,0000.0,0005.95,0002.20,0001.98
2024-02-05 17:24:00,SystemResetWarning,0829.2,5.00,000.00,019.8,019.7,000.0,027.9,021.6,16.9,0000.0,0004.36,0002.17,0001.96
2024-02-05 17:25:00,SystemResetWarning,0829.2,5.00,000.00,019.9,019.7,000.0,027.9,021.6,16.7,0000.0,0004.31,0002.15,0001.95
2024-02-05 17:26:00,SystemResetWarning,0829.2,5.00,000.00,019.9,019.7,000.0,027.9,021.6,17.0,0000.0,0004.38,0002.20,0001.99
2024-02-05 17:27:00,SystemResetWarning,0829.2,5.00,000.00,019.9,019.7,000.0,027.9,021.7,16.7,0000.0,0004.62,0002.38,0002.15
2024-02-05 17:28:00,SystemResetWarning,0829.2,5.00,000.00,019.9,019.7,000.0,028.0,021.7,16.8,0000.0,0004.71,0002.45,0002.23
2024-02-05 17:29:00,SystemResetWarning,0829.2,5.00,000.00,019.9,019.7,000.0,028.0,021.7,17.0,0000.0,0004.67,0002.60,0002.36
2024-02-05 17:30:00,SystemResetWarning,0829.2,5.00,000.00,020.0,019.7,000.0,028.0,021.7,17.5,0000.0,0004.33,0002.67,0002.43
2024-02-05 17:31:00,SystemResetWarning,0829.3,5.00,000.00,020.0,019.7,000.0,028.0,021.7,17.2,0000.0,0005.75,0002.79,0002.53
2024-02-05 17:32:00,SystemResetWarning,0829.3,4.99,000.00,020.0,019.7,000.0,028.1,021.7,16.8,0000.0,0004.96,0002.91,0002.65
2024-02-05 17:33:00,SystemResetWarning,0829.3,4.99,000.00,020.0,019.8,000.0,028.1,021.7,16.9,0000.0,0005.04,0003.05,0002.77
2024-02-05 17:34:00,SystemResetWarning,0829.2,5.00,000.00,020.0,019.8,000.0,028.1,021.7,17.0,0000.0,0005.25,0003.13,0002.89
2024-02-05 17:35:00,SystemResetWarning,0829.2,5.01,000.00,020.1,019.8,000.0,028.1,021.8,17.0,0000.0,0005.45,0003.19,0003.00
2024-02-05 17:36:00,SystemResetWarning,0829.2,5.00,000.00,020.1,019.8,000.0,028.1,021.8,17.2,0000.0,0005.61,0003.26,0003.10
2024-02-05 17:37:00,SystemResetWarning,0829.2,5.00,000.00,020.1,019.8,000.0,028.2,021.8,17.0,0000.0,0005.76,0003.31,0003.15
2024-02-05 17:38:00,SystemResetWarning,0829.2,5.00,000.00,020.1,019.8,000.0,028.2,021.8,17.1,0000.0,0005.69,0003.30,0003.15
2024-02-05 17:39:00,SystemResetWarning,0829.1,5.00,000.00,020.1,019.8,000.0,028.2,021.8,17.0,0000.0,0005.69,0003.32,0003.17
2024-02-05 17:40:00,SystemResetWarning,0829.1,4.99,000.00,020.1,019.9,000.0,028.2,021.8,17.1,0000.0,0005.70,0003.35,0003.21
2024-02-05 17:41:00,SystemResetWarning,0829.1,5.00,000.00,020.2,019.9,000.0,028.2,021.9,17.1,0000.0,0005.76,0003.39,0003.25
2024-02-05 17:42:00,SystemResetWarning,0829.2,5.00,000.00,020.2,019.9,000.0,028.2,021.9,17.2,0000.0,0005.29,0003.46,0003.31
2024-02-05 17:43:00,SystemResetWarning,0829.1,5.00,000.00,020.2,019.9,000.0,028.3,021.9,17.1,0000.0,0004.80,0003.52,0003.38
2024-02-05 17:44:00,SystemResetWarning,0829.1,5.00,000.00,020.2,019.9,000.0,028.3,021.9,16.8,0000.0,0005.19,0003.62,0003.44
2024-02-05 17:45:00,SystemResetWarning,0829.1,5.00,000.00,020.2,019.9,000.0,028.3,021.9,16.6,0000.0,0005.33,0003.69,0003.50
2024-02-05 17:46:00,SystemResetWarning,0829.2,5.00,000.00,020.2,019.9,000.0,028.3,021.9,16.6,0000.0,0005.36,0003.77,0003.57
2024-02-05 17:47:00,SystemResetWarning,0829.2,5.00,000.00,020.2,019.9,000.0,028.3,021.9,16.7,0000.0,0007.04,0003.85,0003.63
2024-02-05 17:48:00,SystemResetWarning,0829.2,5.00,000.00,020.2,019.9,000.0,028.3,021.9,16.9,0000.0,0007.34,0003.92,0003.69
2024-02-05 17:49:00,SystemResetWarning,0829.2,5.00,000.00,020.3,020.0,000.0,028.4,021.9,16.9,0000.0,0007.59,0003.99,0003.74
2024-02-05 17:50:00,SystemResetWarning,0829.1,5.00,000.00,020.3,020.0,000.0,028.4,022.0,17.0,0000.0,0007.71,0004.07,0003.81
2024-02-05 17:51:00,SystemResetWarning,0829.1,5.01,000.00,020.3,020.0,000.0,028.4,022.0,17.1,0000.0,0008.09,0004.13,0003.86
2024-02-05 17:52:00,SystemResetWarning,0829.0,5.00,000.00,020.3,020.0,000.0,028.4,022.0,17.2,0000.0,0008.22,0004.21,0003.91
2024-02-05 17:53:00,SystemResetWarning,0829.1,4.99,000.00,020.3,020.0,000.0,028.4,022.0,17.2,0000.0,0008.20,0004.28,0003.97
2024-02-05 17:54:00,SystemResetWarning,0829.1,5.00,000.00,020.3,020.0,000.0,028.4,022.0,17.1,0000.0,0008.19,0004.30,0003.99
2024-02-05 17:55:00,SystemResetWarning,0829.1,4.99,000.00,020.4,020.0,000.0,028.5,022.1,17.0,0000.0,0008.08,0004.29,0004.03
2024-02-05 17:56:00,SystemResetWarning,0829.1,5.00,000.00,020.4,020.1,000.0,028.5,022.1,16.9,0000.0,0008.11,0004.32,0004.06
2024-02-05 17:57:00,SystemResetWarning,0829.1,5.00,000.00,020.4,020.1,000.0,028.5,022.1,16.8,0000.0,0008.18,0004.36,0004.08
2024-02-05 17:58:00,SystemResetWarning,0829.1,5.00,000.00,020.4,020.1,000.0,028.5,022.1,17.0,0000.0,0007.44,0004.37,0004.11
2024-02-05 17:59:00,SystemResetWarning,0829.2,5.00,000.00,020.4,020.1,000.0,028.5,022.1,17.0,0000.0,0007.28,0004.39,0004.14
